sat.trackr.live / text

‹ back to catalog

STARLINK-30251

NORAD 57532 · 2023-115M

PAYLOAD ACTIVE UNKNOWN

§ Identity

Operator
Country
US
Launch date
2023-08-08
Launch site
AFWTR
Launch vehicle
Mass (kg)
RCS (m²)

Purposes: comms

External: N2YO · Heavens-Above · Gunter

§ Orbital elements

Epoch: 2026-05-25T02:57:08.703360Z

Period
94.27 min
Inclination
43.0025°
Eccentricity
0.0001523
Mean motion
15.27575205 rev/d
Perigee alt
482.0 km
Apogee alt
484.1 km
Semi-major
6,861.2 km
B*
2.0560e-5
RAAN
289.7080°
Arg perigee
269.0663°
Mean anomaly
91.0014°
Rev number
15,404

§ Raw data

STARLINK-302511 57532U 23115M   26145.12301740  .00000304  00000+0  20560-4 0  99932 57532  43.0025 289.7080 0001523 269.0663  91.0014 15.27575205154043

JSON: /api/v1/satellites/57532 · /tle

For live sub-satellite position, see the globe view (requires WebGL).

§ Visibility from observer

Set your observer location to see the next 7 days of passes ≥ 10°. The values pass through the URL so the page stays shareable.

No JS? Fill the form by hand. The geolocation button needs JavaScript.